Regional Weather Roundup
Issued by NWS Portland, ME

Current Version | Previous Version | Text Only | Print | Product List | Glossary Off
Versions: 1 2 3 4 5 6 7 8 9 10 11 12 13 14 15 16 17 18 19 20 21 22 23 24 25 26 27 28 29 30 31 32 33 34 35 36 37 38 39 40 41 42 43 44 45 46 47 48 49 50
000 ASUS41 KGYX 281605 RWRGYX WEATHER ROUNDUP FOR MAINE AND NEW HAMPSHIRE NATIONAL WEATHER SERVICE GRAY ME 1200 PM EDT WED JUN 28 2017 MEZ002-005-006-010-012-015-018-020-021-024-026-027-029-281700- MAINE CITY SKY/WX TMP DP RH WIND PRES REMARKS PORTLAND PTSUNNY 71 52 50 NW9 29.97R SANFORD PTSUNNY 70 52 52 NW9G21 29.99R BAR HARBOR PTSUNNY 68 54 60 W12 29.93S WISCASSET PTSUNNY 69 52 54 NW6 29.97S ROCKLAND MOSUNNY 67 54 63 VRB7 29.95R FRYEBURG MOSUNNY 69 47 45 W13G20 29.98R LEWISTONAUBURN PTSUNNY 67 49 52 W8G18 29.97R AUGUSTA MOSUNNY 69 49 48 W8 29.95F WATERVILLE PTSUNNY 69 51 52 NW3 29.92S BANGOR PTSUNNY 66 53 63 W8 29.94R GREENVILLE N/A 63 50 62 VRB3 29.91S MILLINOCKET LGT RAIN 63 53 70 VRB7 29.92S HOULTON PTSUNNY 67 55 65 MISG 29.87F PRESQUE ISLE LGT RAIN 61 55 81 SW7 29.88F FRENCHVILLE CLOUDY 60 52 74 W3 29.86F CARIBOU CLOUDY 63 53 70 CALM 29.86F $$ NHZ002-005-008-009-011-012-014-281700- NEW HAMPSHIRE CITY SKY/WX TMP DP RH WIND PRES REMARKS PORTSMOUTH MOSUNNY 71 51 48 W15G22 29.98R ROCHESTER PTSUNNY 70 51 51 NW14G22 29.98S NASHUA PTSUNNY 72 50 45 W12G21 30.02S MANCHESTER PTSUNNY 71 47 42 W12 30.00S CONCORD PTSUNNY 69 52 54 NW8 30.01S LACONIA MOSUNNY N/A N/A N/A W10G17 30.01S PLYMOUTH FAIR 67 49 52 W10G18 30.00S BERLIN PTSUNNY 65 50 58 W9 29.99S WHITEFIELD MOSUNNY 65 51 60 W10G17 30.01R JAFFREY MOSUNNY 69 49 48 W8G17 30.04S KEENE PTSUNNY 70 48 45 W9G16 30.03F LEBANON PTSUNNY 68 47 46 W5 30.01S MT WASHINGTON FOG 37 37 100 NW37G46 N/A VSB 0 $$ VTZ005-007-008-281700- VERMONT CITY SKY/WX TMP DP RH WIND PRES REMARKS ST JOHNSBURY N/A 64 55 72 MISG 29.99S MONTPELIER PTSUNNY 63 51 65 NW7 30.06R BURLINGTON MOSUNNY 70 51 51 SW8 30.01S $$ MAZ007-012-024-CTZ003-RIZ002-NYZ038-NYZ072-281700- SOUTHERN NEW ENGLAND AND NY CITY SKY/WX TMP DP RH WIND PRES REMARKS BOSTON MOSUNNY 72 49 44 NW14 30.02R WORCESTER MOSUNNY 67 47 48 NW12 30.06R NANTUCKET SUNNY 69 59 70 SW15 30.05S PROVIDENCE MOSUNNY 74 51 44 NW9G20 30.05R HARTFORD PTSUNNY 72 48 42 NW8 30.06S ALBANY PTSUNNY 70 49 47 W9 30.08R NEW YORK CITY MOSUNNY 74 49 41 W10G17 30.12R $$ ANZ081-ANZ082-ANZ150-NHZ014-MEZ023>029-281700- COASTAL MARINE OBSERVATIONS STATION/POSITION TIME TEMP WIND PRES WAVE AIR SEA DIR/SP/G HT/PER (UTC) (F) (DEG/KT/KT) (MB) (FT/S) MATINICUS ROCK 1500 55 260/ 13/ 14 1013.9R ISLE OF SHOALS 1500 63 300/ 12/ 13 1015.1F JEFFREYS LEDGE 1506 57 N/A 2/ 4 CASHES LEDGE BUO 1450 62 61 1014.9 2/ 4 GEORGES BANK BUO 1450 56 55 1016.2 2/ 7 $$ .............KEY.............. WCI - WIND CHILL TC - TEMPERATURE IN CELSIUS VSB - VISIBILITY IN MILES HX - HEAT INDEX FAIR- INDICATES FEW OR NO CLOUDS BELOW 12,000 FT, WITH NO SIGNIFICANT WEATHER AND/OR OBSTRUCTIONS TO VISIBILITY.

USA.gov is the U.S. government's official web portal to all federal, state and local government web resources and services.